Total_Precipitation_Accumulation
0.84 0.99 1.02 1.22 1.33 1.51 1.78 1.79 1.49 1.36 1.15 1.03 1.29 1.68 2.03 2.91 2.15 1.73 0.94 0.55 0.71 1.03 1.16 0.69 0.61 0.82 1.77 1.50 1.21 1.56 2.04 0.94 0.13 0.03 0.02 0.00 0.01 0.03 0.01 0.03 0.03 0.01 0.06 0.09 0.18
0.67 0.71 1.10 1.41 1.55 1.47 1.40 1.63 1.59 1.49 1.15 0.90 1.20 1.65 2.27 2.94 2.30 1.44 1.17 1.35 1.62 2.10 1.38 0.60 0.73 1.07 1.99 1.60 1.88 2.10 2.25 0.78 0.17 0.03 0.04 0.01 0.01 0.01 0.04 0.03 0.16 0.10 0.06 0.06 0.37
0.76 0.90 0.92 1.23 1.35 1.52 1.42 1.36 1.37 1.48 1.19 1.05 1.35 1.57 2.10 2.87 3.27 1.92 2.48 2.62 2.60 2.64 1.82 0.75 1.28 1.60 1.60 1.94 1.75 1.81 1.42 0.41 0.23 0.21 0.19 0.07 0.05 0.01 0.09 0.19 0.03 0.08 0.10 0.21 0.50
0.89 0.97 0.99 1.12 1.13 1.25 1.31 1.30 1.44 1.66 1.36 1.24 1.61 2.05 2.16 2.92 3.74 2.95 2.39 1.56 2.07 2.31 2.30 1.22 1.56 1.80 1.39 1.86 1.53 1.30 0.64 0.56 0.39 0.52 0.38 0.16 0.09 0.02 0.04 0.02 0.01 0.10 0.14 0.22 0.44
1.05 1.22 1.16 1.04 0.98 1.02 1.11 1.23 1.49 1.57 1.18 1.31 1.59 2.23 2.29 2.70 2.14 2.32 1.42 0.84 1.61 2.53 2.29 1.99 1.74 1.80 1.29 1.04 1.83 1.05 0.61 0.75 0.74 0.68 0.62 0.45 0.23 0.06 0.03 0.03 0.04 0.14 0.19 0.30 0.45
1.42 1.24 0.97 0.89 0.91 1.06 1.28 1.59 1.66 1.54 0.98 0.95 1.91 2.02 1.68 1.92 1.50 1.79 1.21 1.04 1.57 2.44 2.17 2.33 1.80 2.25 1.43 0.93 1.74 1.00 0.83 0.81 1.09 0.91 0.80 0.71 0.36 0.36 0.14 0.10 0.17 0.29 0.45 0.57 0.49
1.53 1.34 1.05 0.90 0.80 0.83 0.94 1.18 1.59 1.60 1.15 1.16 1.75 1.71 1.79 1.68 1.29 1.83 1.08 1.23 1.60 2.09 2.33 2.06 1.58 2.17 1.88 1.32 1.04 1.14 1.07 1.34 1.43 1.06 1.15 0.91 0.76 0.47 0.14 0.33 0.34 0.46 0.53 0.69 0.54
1.67 1.26 0.94 0.85 0.74 0.69 0.65 0.70 0.68 0.92 1.28 1.36 2.06 1.59 1.90 1.71 1.39 1.70 1.31 1.32 1.66 2.04 2.64 2.41 1.98 2.29 1.82 1.93 1.56 1.77 1.86 1.94 1.53 1.73 1.38 1.25 0.65 0.32 0.51 0.41 0.42 0.51 0.68 0.82 0.79
1.84 1.22 0.96 0.80 0.74 0.86 0.91 0.90 0.86 0.91 1.17 1.56 1.76 1.91 1.58 1.63 1.07 1.27 1.61 1.77 2.18 2.71 3.52 3.47 2.60 2.64 1.90 2.33 2.80 2.46 2.06 1.52 1.37 1.65 2.03 1.28 0.52 0.51 0.89 0.81 0.54 0.47 0.68 0.74 0.78
1.43 1.03 0.92 0.72 0.63 0.91 2.07 1.84 1.96 1.66 1.64 1.96 2.28 2.60 1.80 1.62 1.01 0.97 1.81 2.23 3.17 3.36 5.13 5.31 3.85 2.76 2.23 2.15 2.34 2.03 1.30 1.03 1.11 1.27 2.06 1.60 0.61 0.59 0.89 0.93 0.80 0.78 0.74 0.79 0.72
0.98 0.92 0.92 0.81 1.03 1.48 2.15 2.75 2.51 2.14 2.09 2.81 2.52 2.06 1.53 1.08 0.62 1.12 1.94 3.89 4.07 4.04 4.93 4.82 3.55 2.27 1.85 1.33 0.84 1.08 0.90 0.86 0.76 0.84 1.65 1.47 1.04 0.94 1.20 1.29 1.15 0.77 0.45 0.54 0.72
0.92 1.04 1.12 1.02 1.21 1.71 1.90 2.73 2.44 2.39 2.92 2.71 1.60 1.38 1.06 0.81 1.25 1.45 2.28 5.62 4.56 3.86 3.66 3.44 2.22 1.12 1.51 1.37 0.73 0.84 0.92 1.08 1.02 0.89 1.59 1.17 1.39 1.04 1.06 0.84 0.56 0.54 0.49 0.55 0.64
1.09 1.18 1.16 1.12 1.18 1.40 1.45 1.96 1.95 2.00 2.66 3.30 2.52 2.00 1.44 1.45 1.59 1.93 2.92 5.25 4.53 3.38 2.74 1.87 1.20 0.98 1.50 1.91 0.94 0.78 0.80 0.74 1.44 1.19 1.26 1.27 1.19 1.31 1.22 1.22 1.02 0.92 0.90 0.67 0.72
1.15 1.16 1.29 1.37 1.36 1.24 1.30 1.66 1.72 1.99 2.70 3.88 2.65 2.56 1.73 1.67 1.95 1.29 2.49 4.52 4.29 3.02 2.48 2.11 0.94 0.91 1.34 2.03 1.15 1.02 0.59 0.60 0.97 1.09 1.19 1.24 1.01 0.71 0.78 1.12 1.01 0.92 0.72 0.50 0.53
1.07 1.06 1.21 1.80 1.89 1.64 1.53 1.42 1.86 2.18 3.45 3.77 2.83 2.13 1.89 1.76 1.75 1.57 2.13 3.01 2.50 2.43 2.31 2.20 1.17 0.94 1.39 1.24 0.92 1.28 0.63 0.93 1.04 0.97 1.12 1.06 1.21 0.33 0.52 0.80 0.93 0.81 0.37 0.32 0.29
1.09 1.15 1.48 1.55 1.66 1.09 1.17 1.73 2.23 2.87 3.66 3.62 2.65 1.96 1.77 1.76 1.80 2.02 2.13 1.88 1.88 1.92 1.28 1.05 1.00 0.95 0.92 0.57 0.38 0.50 0.56 0.92 1.36 1.28 1.69 0.74 0.81 0.29 0.29 0.32 0.74 0.78 0.45 0.45 0.32
1.46 1.45 1.81 1.49 1.16 0.91 1.69 2.77 3.35 2.85 2.08 2.10 1.67 0.99 1.17 1.44 1.44 1.25 1.80 1.88 2.15 2.49 2.56 1.82 1.30 0.91 0.79 0.38 0.26 0.31 0.89 1.99 2.15 2.08 1.18 0.35 0.39 0.18 0.11 0.10 0.29 0.52 0.51 0.61 0.60
2.21 1.76 1.59 1.18 0.82 1.54 2.72 2.95 3.22 1.90 1.47 0.82 0.66 0.73 0.89 0.93 1.26 0.94 1.17 1.54 1.05 1.03 1.65 2.26 2.62 1.18 0.63 0.30 0.36 0.35 0.72 1.46 1.66 0.69 0.53 0.22 0.30 0.19 0.21 0.19 0.19 0.36 0.55 0.89 1.12
2.34 1.73 1.52 1.08 0.99 2.20 3.07 3.12 2.27 1.39 0.99 0.40 0.46 0.67 0.74 0.71 0.93 0.97 0.87 1.04 1.13 0.87 1.14 0.96 1.28 0.59 0.28 0.08 0.16 0.34 0.54 0.47 0.82 0.32 0.50 0.38 0.31 0.39 0.41 0.39 0.31 0.44 0.74 1.04 1.10
2.07 1.88 1.68 1.27 1.71 3.07 3.65 2.79 0.94 0.55 0.25 0.27 0.58 0.50 0.65 0.68 0.80 1.04 0.72 0.58 0.86 0.72 0.51 0.39 0.68 0.31 0.16 0.13 0.07 0.08 0.15 0.45 0.76 0.92 0.60 0.31 0.28 0.69 0.68 0.62 0.63 0.68 0.89 1.01 0.91
3.25 3.00 2.24 1.68 3.28 5.21 4.01 1.73 0.56 0.20 0.13 0.26 0.32 0.43 0.48 0.55 0.83 0.90 0.81 0.61 0.63 0.47 0.28 0.18 0.27 0.37 0.24 0.26 0.10 0.04 0.16 0.26 0.50 0.69 1.07 0.40 0.25 0.40 0.51 0.55 0.71 0.59 0.76 0.80 0.88
4.26 4.46 3.13 2.80 4.82 4.77 2.77 1.07 0.66 0.19 0.09 0.10 0.22 0.44 0.43 0.41 0.56 0.74 0.59 0.49 0.45 0.63 0.38 0.19 0.13 0.14 0.17 0.03 0.01 0.02 0.01 0.08 0.61 0.47 0.62 0.54 0.27 0.05 0.17 0.41 0.35 0.41 0.46 0.43 0.51
5.11 4.40 3.80 4.42 5.15 2.95 1.30 0.61 0.35 0.22 0.16 0.24 0.25 0.29 0.25 0.27 0.46 0.29 0.31 0.16 0.14 0.65 0.65 0.30 0.25 0.35 0.66 0.49 0.07 0.06 0.02 0.11 0.27 0.59 0.42 0.54 0.12 0.01 0.13 0.25 0.16 0.26 0.41 0.22 0.14
5.42 5.09 4.88 5.52 4.51 1.99 1.55 1.13 0.83 0.65 0.45 0.53 0.50 0.33 0.45 0.39 0.35 0.25 0.12 0.09 0.06 0.30 0.60 0.51 0.49 0.23 0.33 0.32 0.21 0.18 0.03 0.10 0.44 0.69 0.17 0.09 0.01 0.00 0.09 0.10 0.10 0.30 0.47 0.16 0.16
4.84 3.72 3.18 4.31 3.63 2.67 2.47 2.35 1.53 1.37 1.33 1.10 1.23 0.98 1.07 1.12 0.67 0.52 0.37 0.32 0.18 0.21 0.49 0.87 1.14 0.35 0.08 0.06 0.22 0.20 0.08 0.08 0.37 0.21 0.38 0.10 0.01 0.01 0.03 0.17 0.32 0.67 0.63 0.21 0.21
3.55 2.73 2.51 2.46 2.33 2.46 2.69 2.50 1.53 1.42 1.54 1.31 1.49 1.39 1.46 1.77 1.48 1.22 1.06 0.95 0.78 0.57 0.70 1.14 1.53 0.76 0.48 0.11 0.15 0.25 0.06 0.07 0.10 0.04 0.08 0.05 0.06 0.03 0.03 0.32 0.25 0.68 0.75 0.35 0.24
2.87 2.24 2.42 2.12 1.90 2.37 2.43 1.62 1.16 1.17 1.38 1.01 1.06 1.14 0.95 0.92 0.96 0.92 0.91 0.75 0.81 0.83 1.06 1.68 1.85 1.72 1.20 0.28 0.48 0.57 0.09 0.04 0.03 0.06 0.12 0.35 0.48 0.19 0.21 0.63 0.35 0.50 0.56 0.39 0.27